Regional Weather Roundup
Issued by NWS

Home | Current Version | Previous Version | Text Only | Print | Product List | Glossary On
Versions: 1 2 3 4 5 6 7 8 9 10 11 12 13 14 15 16 17 18 19 20 21 22 23 24 25 26 27 28 29 30 31 32 33 34 35 36 37 38 39 40 41 42 43 44 45 46 47 48 49 50
000
ASUS43 KLSX 251159
RWRMO

WEATHER SUMMARY FOR MISSOURI
NATIONAL WEATHER SERVICE SPRINGFIELD MO
700 AM CDT MON MAY 25 2015

NOTE: "FAIR" INDICATES FEW OR NO CLOUDS BELOW 12,000 FEET WITH NO
       SIGNIFICANT WEATHER AND/OR OBSTRUCTIONS TO VISIBILITY.
       CURRENT SKY AND/OR WEATHER CONDITIONS ARE NOT AVAILABLE FOR
       CHILLICOTHE AND FARMINGTON.

MOZ001>031-035>038-043-044-053-054-251300-
...NORTHERN AND WESTERN MISSOURI...

CITY           SKY/WX    TMP DP  RH WIND       PRES   REMARKS
KANSAS CTY INT MOSUNNY   60  60 100 S7        29.91R
6HR MIN TEMP:  58; 6HR MAX TEMP:  63; 6HR PCP:  0.07;

KANSAS C DTWN  SUNNY     62  59  90 SW3       29.91R
6HR MIN TEMP:  61; 6HR MAX TEMP:  65; 6HR PCP:  0.02;

LEE`S SUMMIT   SUNNY     60  59  96 S8        29.92R
6HR MIN TEMP:  60; 6HR MAX TEMP:  63; 6HR PCP:  0.04;

ST JOSEPH      MOSUNNY   63  60  90 SW10      29.90R
6HR MIN TEMP:  62; 6HR MAX TEMP:  64; 6HR PCP:  0.04;

KIRKSVILLE     CLOUDY    62  61  96 SW5       29.88R
6HR MIN TEMP:  61; 6HR MAX TEMP:  63; 6HR PCP:  0.12;


$$
MOZ066>068-077>081-088>096-101>105-251300-
...SOUTHWEST MISSOURI...

CITY           SKY/WX    TMP DP  RH WIND       PRES   REMARKS
SPRINGFIELD    CLOUDY    64  61  90 S10       29.96R
6HR MIN TEMP:  61; 6HR MAX TEMP:  64; 6HR PCP:  0.01;

JOPLIN         MOCLDY    64  63  96 S9        29.93R
6HR MIN TEMP:  61; 6HR MAX TEMP:  64;


$$
MOZ032>034-039>042-045>050-055>058-069>072-251300-
...CENTRAL MISSOURI...

CITY           SKY/WX    TMP DP  RH WIND       PRES   REMARKS
COLUMBIA       CLOUDY    63  61  93 SW12      29.96R
6HR MIN TEMP:  63; 6HR MAX TEMP:  65; 6HR PCP:  0.08;

JEFFERSON CITY CLOUDY    64  60  87 SW8       29.96R
6HR MIN TEMP:  64; 6HR MAX TEMP:  68;

ROLLA          PTSUNNY   61  59  93 S7        29.97R
6HR MIN TEMP:  60; 6HR MAX TEMP:  67;

SEDALIA        CLOUDY    63  59  87 S7        29.95R
6HR MIN TEMP:  62; 6HR MAX TEMP:  65; 6HR PCP:  0.19;

WHITEMAN AFB   CLOUDY    61  59  94 S6        29.93R
OSAGE BEACH    SUNNY     63  59  88 S5        29.96R

$$
MOZ051-052-059>065-251300-
...EAST CENTRAL MISSOURI...

CITY           SKY/WX    TMP DP  RH WIND       PRES   REMARKS
ST LOUIS INTL  PTSUNNY   71  63  75 SW13G18   29.96R
6HR MIN TEMP:  70; 6HR MAX TEMP:  71; 6HR PCP: TRACE;

SPIRIT OF STL  CLOUDY    68  63  84 SW8       29.95R
6HR MIN TEMP:  68; 6HR MAX TEMP:  69;

ST CHARLES     PTSUNNY   70  61  73 SW22G29   29.94R
6HR MIN TEMP:  68; 6HR MAX TEMP:  70;


$$
MOZ072>076-082>087-097>100-106>115-251300-
...SOUTH CENTRAL AND SOUTHEAST MISSOURI...

CITY           SKY/WX    TMP DP  RH WIND       PRES   REMARKS
CAPE GIRARDEAU CLOUDY    69  67  93 S10       30.03R
6HR MIN TEMP:  68; 6HR MAX TEMP:  70; 6HR PCP:  0.04;

FARMINGTON     CLOUDY    66  64  94 S8        30.03R
6HR MIN TEMP:  66; 6HR MAX TEMP:  66; 6HR PCP:  0.01;

POPLAR BLUFF   LGT RAIN  69  66  90 S8        30.01R
6HR MIN TEMP:  68; 6HR MAX TEMP:  70; 6HR PCP:  0.27;

WEST PLAINS    CLOUDY    68  65  90 S5        30.01R
6HR MIN TEMP:  67; 6HR MAX TEMP:  70;


$$



USA.gov is the U.S. government's official web portal to all federal, state and local government web resources and services.